RYR9YP LPPR-LFOT

Flight info

Callsign RYR9YP
Flight time 1h 37m
Altitude 34000
Route BELDU DCT ADORO DCT FITSE DCT DGO L176 LUSEM DCT LULUT DCT POI/N0331F180 B19 OMARI
Aircraft B738/M-SDE2E3FGHIRWXY/LB1

Departure

Time 2026-04-25 17:07
Airport Francisco de Sá Carneiro Airport (LPPR)

Arrival

Time 2026-04-25 18:45
Airport Tours Val de Loire Airport (LFOT)
Time Latitude Longitude Altitude Speed Heading
2026-04-25 16:46 41.23734 -8.67264 233 ft 0 kts 69°
2026-04-25 17:00 41.23731 -8.67273 233 ft 2 kts 69°
2026-04-25 17:00 41.23725 -8.67291 232 ft 2 kts 69°
2026-04-25 17:01 41.23720 -8.67310 232 ft 2 kts 69°
2026-04-25 17:01 41.23714 -8.67328 231 ft 2 kts 69°
2026-04-25 17:01 41.23709 -8.67348 231 ft 2 kts 82°
2026-04-25 17:01 41.23710 -8.67368 230 ft 2 kts 103°
2026-04-25 17:02 41.23715 -8.67386 230 ft 1 kts 122°
2026-04-25 17:02 41.23719 -8.67393 230 ft 1 kts 128°
2026-04-25 17:02 41.23720 -8.67395 230 ft 0 kts 127°
2026-04-25 17:04 41.23719 -8.67393 229 ft 0 kts 129°
2026-04-25 17:05 41.23699 -8.67397 229 ft 8 kts 219°
2026-04-25 17:05 41.23619 -8.67562 225 ft 12 kts 259°
2026-04-25 17:05 41.23610 -8.67623 223 ft 0 kts 257°
2026-04-25 17:06 41.23610 -8.67624 223 ft 1 kts 257°
2026-04-25 17:06 41.23604 -8.67664 222 ft 6 kts 257°
2026-04-25 17:06 41.23592 -8.67741 221 ft 10 kts 261°
2026-04-25 17:06 41.23641 -8.67820 219 ft 20 kts 347°
2026-04-25 17:07 41.24052 -8.67928 212 ft 96 kts 347°
2026-04-25 17:07 41.24920 -8.68155 185 ft 157 kts 348°
2026-04-25 17:07 41.26067 -8.68433 709 ft 167 kts 348°
2026-04-25 17:07 41.27177 -8.68709 1514 ft 167 kts 349°
2026-04-25 17:08 41.28345 -8.69013 2121 ft 176 kts 348°
2026-04-25 17:08 41.29599 -8.69352 2578 ft 191 kts 348°
2026-04-25 17:08 41.30952 -8.69724 2972 ft 209 kts 348°
2026-04-25 17:08 41.32443 -8.70129 3400 ft 230 kts 349°
2026-04-25 17:09 41.34055 -8.70562 3959 ft 245 kts 349°
2026-04-25 17:09 41.35797 -8.70791 4460 ft 261 kts
2026-04-25 17:09 41.37454 -8.69797 5185 ft 266 kts 42°
2026-04-25 17:09 41.38490 -8.67762 5965 ft 270 kts 72°
2026-04-25 17:10 41.38767 -8.65348 6848 ft 268 kts 86°
2026-04-25 17:10 41.38858 -8.62839 7559 ft 274 kts 86°
2026-04-25 17:10 41.38966 -8.60282 8359 ft 277 kts 86°
2026-04-25 17:10 41.39090 -8.57715 9155 ft 280 kts 86°
2026-04-25 17:11 41.39222 -8.55115 9895 ft 284 kts 86°
2026-04-25 17:11 41.39355 -8.52488 10540 ft 291 kts 86°
2026-04-25 17:11 41.39492 -8.49750 11055 ft 303 kts 86°
2026-04-25 17:11 41.39631 -8.46926 11817 ft 306 kts 86°
2026-04-25 17:12 41.39769 -8.44104 12593 ft 309 kts 86°
2026-04-25 17:12 41.39910 -8.41208 13331 ft 313 kts 86°
2026-04-25 17:12 41.40051 -8.38326 14059 ft 317 kts 86°
2026-04-25 17:12 41.40191 -8.35417 14818 ft 319 kts 86°
2026-04-25 17:13 41.40342 -8.32402 15366 ft 321 kts 86°
2026-04-25 17:13 41.40441 -8.30435 15635 ft 324 kts 86°
2026-04-25 17:13 41.40637 -8.26425 16255 ft 328 kts 86°
2026-04-25 17:13 41.40783 -8.23365 16771 ft 329 kts 86°
2026-04-25 17:14 41.40926 -8.20305 17223 ft 333 kts 86°
2026-04-25 17:14 41.41065 -8.17194 17903 ft 337 kts 86°
2026-04-25 17:14 41.41201 -8.14136 18672 ft 338 kts 86°
2026-04-25 17:14 41.41345 -8.10949 19344 ft 342 kts 86°
2026-04-25 17:15 41.41489 -8.07791 20014 ft 345 kts 85°
2026-04-25 17:15 41.41634 -8.04607 20677 ft 347 kts 85°
2026-04-25 17:15 41.41793 -8.01396 21119 ft 352 kts 85°
2026-04-25 17:15 41.41957 -7.98140 21591 ft 355 kts 85°
2026-04-25 17:16 41.42119 -7.94840 22061 ft 357 kts 85°
2026-04-25 17:16 41.42278 -7.91509 22507 ft 360 kts 85°
2026-04-25 17:16 41.42432 -7.88177 22967 ft 362 kts 85°
2026-04-25 17:16 41.42582 -7.84818 23371 ft 366 kts 85°
2026-04-25 17:17 41.42719 -7.81417 23884 ft 369 kts 85°
2026-04-25 17:17 41.42849 -7.78018 24530 ft 369 kts 85°
2026-04-25 17:17 41.42985 -7.74573 25061 ft 373 kts 85°
2026-04-25 17:17 41.43123 -7.71127 25587 ft 376 kts 85°
2026-04-25 17:18 41.43266 -7.67636 26139 ft 378 kts 85°
2026-04-25 17:18 41.43410 -7.64129 26611 ft 382 kts 85°
2026-04-25 17:18 41.43556 -7.60584 27222 ft 382 kts 84°
2026-04-25 17:18 41.43701 -7.57029 27672 ft 385 kts 84°
2026-04-25 17:19 41.43846 -7.53457 28167 ft 387 kts 84°
2026-04-25 17:19 41.43993 -7.49880 28581 ft 391 kts 84°
2026-04-25 17:19 41.44141 -7.46244 29044 ft 393 kts 84°
2026-04-25 17:19 41.44291 -7.42555 29484 ft 396 kts 84°
2026-04-25 17:20 41.44438 -7.38893 29905 ft 398 kts 84°
2026-04-25 17:20 41.44585 -7.35198 30370 ft 400 kts 84°
2026-04-25 17:20 41.44732 -7.31461 30693 ft 405 kts 85°
2026-04-25 17:20 41.44879 -7.27682 31141 ft 406 kts 85°
2026-04-25 17:21 41.45026 -7.23895 31473 ft 410 kts 84°
2026-04-25 17:21 41.45171 -7.20091 31935 ft 411 kts 84°
2026-04-25 17:21 41.45318 -7.16236 32050 ft 420 kts 84°
2026-04-25 17:21 41.45469 -7.12252 32064 ft 431 kts 84°
2026-04-25 17:22 41.45723 -7.05521 32064 ft 438 kts 84°
2026-04-25 17:22 41.46063 -6.96083 32059 ft 432 kts 84°
2026-04-25 17:23 41.46348 -6.88035 32061 ft 434 kts 85°
2026-04-25 17:23 41.46628 -6.79975 32061 ft 433 kts 85°
2026-04-25 17:24 41.46903 -6.71946 32061 ft 431 kts 85°
2026-04-25 17:24 41.47171 -6.63946 32070 ft 432 kts 85°
2026-04-25 17:25 41.47435 -6.55915 32075 ft 432 kts 85°
2026-04-25 17:25 41.47695 -6.47806 32566 ft 434 kts 85°
2026-04-25 17:26 41.47821 -6.43801 33257 ft 429 kts 85°
2026-04-25 17:26 41.47943 -6.39879 33938 ft 423 kts 85°
2026-04-25 17:26 41.48066 -6.35885 34065 ft 427 kts 85°
2026-04-25 17:26 41.48242 -6.31932 34084 ft 425 kts 83°
2026-04-25 17:27 41.49415 -6.24118 34082 ft 434 kts 71°
2026-04-25 17:27 41.51184 -6.17773 34079 ft 435 kts 67°
2026-04-25 17:28 41.53921 -6.09082 34081 ft 433 kts 66°
2026-04-25 17:28 41.56253 -6.01647 34085 ft 435 kts 67°
2026-04-25 17:29 41.58555 -5.94126 34084 ft 435 kts 67°
2026-04-25 17:29 41.60830 -5.86594 34087 ft 434 kts 67°
2026-04-25 17:30 41.63092 -5.79056 34087 ft 435 kts 67°
2026-04-25 17:30 41.65336 -5.71541 34087 ft 433 kts 67°
2026-04-25 17:31 41.67557 -5.64083 34088 ft 434 kts 67°
2026-04-25 17:31 41.69791 -5.56565 34089 ft 435 kts 67°
2026-04-25 17:32 41.72048 -5.48950 34095 ft 435 kts 67°
2026-04-25 17:32 41.74258 -5.41468 34095 ft 433 kts 68°
2026-04-25 17:33 41.76472 -5.33941 34094 ft 430 kts 69°
2026-04-25 17:33 41.78683 -5.26391 34095 ft 441 kts 70°
2026-04-25 17:34 41.80930 -5.18711 34091 ft 444 kts 70°
2026-04-25 17:34 41.83211 -5.10896 34094 ft 446 kts 70°
2026-04-25 17:35 41.85460 -5.03121 34218 ft 445 kts 70°
2026-04-25 17:35 41.86565 -4.99184 34378 ft 444 kts 71°
2026-04-25 17:35 41.87614 -4.95303 34577 ft 445 kts 72°
2026-04-25 17:36 41.88616 -4.91394 34734 ft 444 kts 73°
2026-04-25 17:36 41.89560 -4.87449 34854 ft 445 kts 74°
2026-04-25 17:36 41.91237 -4.79413 34739 ft 445 kts 77°
2026-04-25 17:37 41.91936 -4.75415 34416 ft 440 kts 79°
2026-04-25 17:37 41.92549 -4.71346 33766 ft 439 kts 81°
2026-04-25 17:37 41.93073 -4.67313 33088 ft 438 kts 79°
2026-04-25 17:37 41.94064 -4.63572 33445 ft 415 kts 64°
2026-04-25 17:38 41.95524 -4.60339 33900 ft 398 kts 57°
2026-04-25 17:38 41.96576 -4.58294 34054 ft 398 kts 56°
2026-04-25 17:38 42.00052 -4.50728 34109 ft 415 kts 64°
2026-04-25 17:39 42.02488 -4.43603 34106 ft 421 kts 69°
2026-04-25 17:39 42.04619 -4.36388 34109 ft 415 kts 70°
2026-04-25 17:40 42.06687 -4.29083 34114 ft 416 kts 71°
2026-04-25 17:40 42.08745 -4.21737 34117 ft 427 kts 71°
2026-04-25 17:41 42.10887 -4.14095 34116 ft 443 kts 71°
2026-04-25 17:41 42.13086 -4.06231 34112 ft 449 kts 71°
2026-04-25 17:42 42.15290 -3.98338 34127 ft 448 kts 71°
2026-04-25 17:42 42.17485 -3.90453 34129 ft 448 kts 71°
2026-04-25 17:43 42.19672 -3.82578 34128 ft 450 kts 71°
2026-04-25 17:43 42.21869 -3.74643 34137 ft 452 kts 71°
2026-04-25 17:44 42.24065 -3.66687 34146 ft 453 kts 71°
2026-04-25 17:44 42.26270 -3.58667 34158 ft 454 kts 70°
2026-04-25 17:45 42.28092 -3.52022 34158 ft 455 kts 70°
2026-04-25 17:45 42.30648 -3.42657 34163 ft 455 kts 70°
2026-04-25 17:46 42.32843 -3.34614 34162 ft 457 kts 71°
2026-04-25 17:46 42.35058 -3.26450 34161 ft 459 kts 71°
2026-04-25 17:47 42.37239 -3.18355 34157 ft 459 kts 71°
2026-04-25 17:47 42.39434 -3.10194 34150 ft 459 kts 71°
2026-04-25 17:48 42.42723 -2.97918 34145 ft 460 kts 71°
2026-04-25 17:49 42.45149 -2.89802 34133 ft 462 kts 62°
2026-04-25 17:49 42.46907 -2.86222 34134 ft 462 kts 49°
2026-04-25 17:49 42.49111 -2.83081 34138 ft 461 kts 43°
2026-04-25 17:50 42.53929 -2.77237 34128 ft 461 kts 40°
2026-04-25 17:50 42.58818 -2.71580 34132 ft 462 kts 39°
2026-04-25 17:51 42.63723 -2.65829 34133 ft 461 kts 40°
2026-04-25 17:51 42.68563 -2.60045 34135 ft 463 kts 40°
2026-04-25 17:52 42.73415 -2.54184 34137 ft 463 kts 40°
2026-04-25 17:52 42.78209 -2.48357 34139 ft 463 kts 40°
2026-04-25 17:53 42.83038 -2.42468 34136 ft 464 kts 40°
2026-04-25 17:53 42.87837 -2.36602 34137 ft 462 kts 40°
2026-04-25 17:54 42.92648 -2.30710 34137 ft 461 kts 41°
2026-04-25 17:54 42.97448 -2.24818 34141 ft 463 kts 41°
2026-04-25 17:55 43.02213 -2.18952 34143 ft 462 kts 41°
2026-04-25 17:55 43.07009 -2.13027 34137 ft 463 kts 41°
2026-04-25 17:56 43.11818 -2.07077 34135 ft 463 kts 41°
2026-04-25 17:56 43.16602 -2.01149 34143 ft 464 kts 41°
2026-04-25 17:57 43.21378 -1.95217 34148 ft 462 kts 41°
2026-04-25 17:57 43.26124 -1.89313 34147 ft 462 kts 41°
2026-04-25 17:58 43.31012 -1.83472 34146 ft 461 kts 36°
2026-04-25 17:58 43.36328 -1.78631 34149 ft 459 kts 29°
2026-04-25 17:59 43.41828 -1.74118 34150 ft 460 kts 30°
2026-04-25 17:59 43.47255 -1.69325 34149 ft 462 kts 31°
2026-04-25 18:00 43.52619 -1.64463 34149 ft 461 kts 32°
2026-04-25 18:00 43.57961 -1.59596 34146 ft 460 kts 32°
2026-04-25 18:01 43.63333 -1.54703 34142 ft 461 kts 31°
2026-04-25 18:01 43.68676 -1.49838 34137 ft 460 kts 31°
2026-04-25 18:02 43.74029 -1.44955 34132 ft 461 kts 31°
2026-04-25 18:02 43.79423 -1.40023 34133 ft 463 kts 31°
2026-04-25 18:03 43.84774 -1.35119 34133 ft 464 kts 31°
2026-04-25 18:03 43.90228 -1.30110 34133 ft 464 kts 32°
2026-04-25 18:04 43.95634 -1.25135 34133 ft 466 kts 32°
2026-04-25 18:04 44.01074 -1.20117 34132 ft 465 kts 32°
2026-04-25 18:05 44.06458 -1.15140 34133 ft 465 kts 32°
2026-04-25 18:05 44.11911 -1.10086 34133 ft 465 kts 32°
2026-04-25 18:06 44.17302 -1.05077 34134 ft 464 kts 32°
2026-04-25 18:06 44.22711 -1.00043 34135 ft 466 kts 32°
2026-04-25 18:07 44.28066 -0.95050 34137 ft 463 kts 32°
2026-04-25 18:07 44.33466 -0.90002 34136 ft 462 kts 32°
2026-04-25 18:08 44.38838 -0.85129 34133 ft 462 kts 28°
2026-04-25 18:08 44.44663 -0.81256 34132 ft 458 kts 19°
2026-04-25 18:09 44.50699 -0.78212 34131 ft 457 kts 16°
2026-04-25 18:09 44.56773 -0.75315 34131 ft 456 kts 16°
2026-04-25 18:10 44.62823 -0.72375 34135 ft 456 kts 17°
2026-04-25 18:10 44.68826 -0.69391 34132 ft 456 kts 17°
2026-04-25 18:11 44.74837 -0.66369 34133 ft 456 kts 17°
2026-04-25 18:11 44.80889 -0.63304 34134 ft 456 kts 17°
2026-04-25 18:12 44.86896 -0.60252 34133 ft 456 kts 17°
2026-04-25 18:12 44.92892 -0.57198 34130 ft 457 kts 17°
2026-04-25 18:13 44.98885 -0.54136 34127 ft 456 kts 17°
2026-04-25 18:13 45.04887 -0.51057 34120 ft 456 kts 17°
2026-04-25 18:14 45.13900 -0.46430 34119 ft 455 kts 17°
2026-04-25 18:14 45.19838 -0.43372 34121 ft 455 kts 17°
2026-04-25 18:15 45.25830 -0.40282 34121 ft 454 kts 17°
2026-04-25 18:15 45.31823 -0.37183 34117 ft 453 kts 17°
2026-04-25 18:16 45.37762 -0.34108 34116 ft 453 kts 18°
2026-04-25 18:17 45.46660 -0.29485 34113 ft 454 kts 18°
2026-04-25 18:17 45.52653 -0.26359 34121 ft 454 kts 18°
2026-04-25 18:18 45.58640 -0.23231 34121 ft 454 kts 18°
2026-04-25 18:18 45.64568 -0.20127 34124 ft 453 kts 18°
2026-04-25 18:19 45.70513 -0.17005 34123 ft 453 kts 18°
2026-04-25 18:19 45.76487 -0.13863 34115 ft 454 kts 18°
2026-04-25 18:20 45.82445 -0.10722 34115 ft 454 kts 18°
2026-04-25 18:20 45.88412 -0.07569 34115 ft 453 kts 18°
2026-04-25 18:21 45.94334 -0.04433 34115 ft 453 kts 18°
2026-04-25 18:21 46.00268 -0.01285 34115 ft 453 kts 18°
2026-04-25 18:22 46.06229 0.01884 34121 ft 455 kts 18°
2026-04-25 18:22 46.12246 0.05090 34124 ft 462 kts 18°
2026-04-25 18:22 46.15211 0.06674 33896 ft 468 kts 18°
2026-04-25 18:23 46.18265 0.08309 33470 ft 462 kts 18°
2026-04-25 18:23 46.21263 0.09918 33257 ft 450 kts 18°
2026-04-25 18:23 46.24201 0.11497 33067 ft 438 kts 18°
2026-04-25 18:23 46.27045 0.13025 32547 ft 436 kts 18°
2026-04-25 18:24 46.29917 0.14565 31695 ft 440 kts 19°
2026-04-25 18:24 46.32804 0.16111 31023 ft 440 kts 19°
2026-04-25 18:24 46.35690 0.17664 30532 ft 435 kts 19°
2026-04-25 18:24 46.38527 0.19196 29996 ft 432 kts 19°
2026-04-25 18:25 46.41325 0.20707 29485 ft 427 kts 19°
2026-04-25 18:25 46.44124 0.22218 28916 ft 424 kts 19°
2026-04-25 18:25 46.46888 0.23711 28425 ft 420 kts 19°
2026-04-25 18:25 46.49612 0.25183 27887 ft 417 kts 19°
2026-04-25 18:26 46.52354 0.26667 27364 ft 413 kts 19°
2026-04-25 18:26 46.55067 0.28137 26848 ft 410 kts 19°
2026-04-25 18:26 46.57722 0.29725 26330 ft 407 kts 23°
2026-04-25 18:26 46.60231 0.31578 25828 ft 404 kts 27°
2026-04-25 18:27 46.62656 0.33620 25384 ft 399 kts 30°
2026-04-25 18:27 46.65008 0.35717 24938 ft 395 kts 30°
2026-04-25 18:27 46.67357 0.37848 24334 ft 394 kts 31°
2026-04-25 18:27 46.69657 0.39944 23825 ft 391 kts 30°
2026-04-25 18:28 46.71978 0.42051 23299 ft 388 kts 30°
2026-04-25 18:28 46.74258 0.44112 22798 ft 385 kts 30°
2026-04-25 18:28 46.76536 0.46165 22309 ft 382 kts 30°
2026-04-25 18:29 46.81047 0.50223 21219 ft 379 kts 30°
2026-04-25 18:29 46.83282 0.52231 20608 ft 380 kts 30°
2026-04-25 18:30 46.90056 0.58322 18758 ft 378 kts 30°
2026-04-25 18:30 46.92305 0.60348 18148 ft 378 kts 30°
2026-04-25 18:30 46.94546 0.62370 17551 ft 377 kts 30°
2026-04-25 18:30 46.96758 0.64367 16962 ft 375 kts 30°
2026-04-25 18:31 46.99004 0.66398 16358 ft 374 kts 31°
2026-04-25 18:31 47.01212 0.68397 15760 ft 372 kts 31°
2026-04-25 18:31 47.03410 0.70388 15161 ft 371 kts 31°
2026-04-25 18:31 47.05612 0.72384 14561 ft 369 kts 31°
2026-04-25 18:32 47.07796 0.74365 14001 ft 366 kts 31°
2026-04-25 18:32 47.09961 0.76331 13359 ft 360 kts 31°
2026-04-25 18:32 47.12055 0.78234 12753 ft 350 kts 31°
2026-04-25 18:32 47.14121 0.80010 12135 ft 341 kts 26°
2026-04-25 18:33 47.16307 0.81232 11516 ft 332 kts
2026-04-25 18:33 47.18582 0.81165 10896 ft 323 kts 344°
2026-04-25 18:33 47.20633 0.79938 10295 ft 315 kts 333°
2026-04-25 18:33 47.22563 0.78473 9675 ft 310 kts 332°
2026-04-25 18:34 47.24464 0.77015 9043 ft 305 kts 333°
2026-04-25 18:34 47.26351 0.75608 8535 ft 296 kts 333°
2026-04-25 18:34 47.28069 0.74114 8307 ft 283 kts 324°
2026-04-25 18:34 47.29504 0.72136 8043 ft 277 kts 311°
2026-04-25 18:35 47.30661 0.69907 7772 ft 271 kts 307°
2026-04-25 18:35 47.31744 0.67663 7489 ft 266 kts 307°
2026-04-25 18:35 47.32827 0.65481 7243 ft 263 kts 308°
2026-04-25 18:35 47.33947 0.63310 7025 ft 263 kts 309°
2026-04-25 18:36 47.35066 0.61180 6753 ft 262 kts 309°
2026-04-25 18:36 47.36171 0.59029 6438 ft 263 kts 306°
2026-04-25 18:36 47.36968 0.56613 6002 ft 268 kts 285°
2026-04-25 18:36 47.36959 0.53862 5565 ft 273 kts 256°
2026-04-25 18:37 47.36134 0.51343 5284 ft 270 kts 236°
2026-04-25 18:37 47.34891 0.49345 5044 ft 266 kts 217°
2026-04-25 18:37 47.33223 0.48195 4808 ft 261 kts 196°
2026-04-25 18:37 47.31473 0.47565 4565 ft 257 kts 193°
2026-04-25 18:38 47.29734 0.46987 4314 ft 255 kts 192°
2026-04-25 18:38 47.27960 0.46672 4123 ft 251 kts 178°
2026-04-25 18:38 47.26339 0.47244 4107 ft 238 kts 148°
2026-04-25 18:38 47.25147 0.48877 4135 ft 234 kts 122°
2026-04-25 18:39 47.24407 0.51011 4141 ft 235 kts 108°
2026-04-25 18:39 47.23935 0.53343 4002 ft 237 kts 103°
2026-04-25 18:39 47.23546 0.55646 3806 ft 230 kts 102°
2026-04-25 18:39 47.23151 0.57939 3548 ft 230 kts 102°
2026-04-25 18:40 47.22780 0.60196 3301 ft 229 kts 98°
2026-04-25 18:40 47.22783 0.62530 3053 ft 224 kts 72°
2026-04-25 18:40 47.23606 0.64357 2990 ft 217 kts 38°
2026-04-25 18:40 47.24954 0.65435 2993 ft 221 kts 20°
2026-04-25 18:41 47.26436 0.66075 2986 ft 222 kts 15°
2026-04-25 18:41 47.27916 0.66629 2984 ft 220 kts 15°
2026-04-25 18:41 47.29354 0.67180 2975 ft 205 kts 16°
2026-04-25 18:41 47.30677 0.67703 2976 ft 188 kts 16°
2026-04-25 18:42 47.31923 0.68225 2715 ft 187 kts 18°
2026-04-25 18:42 47.32750 0.68595 2505 ft 183 kts 17°
2026-04-25 18:42 47.34351 0.69240 2062 ft 169 kts 14°
2026-04-25 18:42 47.35399 0.69618 1999 ft 151 kts 15°
2026-04-25 18:43 47.36411 0.69987 1717 ft 146 kts 15°
2026-04-25 18:43 47.37387 0.70382 1342 ft 144 kts 17°
2026-04-25 18:43 47.38331 0.70789 1112 ft 142 kts 18°
2026-04-25 18:43 47.39283 0.71183 975 ft 143 kts 17°
2026-04-25 18:44 47.40276 0.71580 814 ft 148 kts 13°
2026-04-25 18:44 47.41275 0.71982 610 ft 149 kts 14°
2026-04-25 18:44 47.42282 0.72384 384 ft 150 kts 15°
2026-04-25 18:44 47.43145 0.72732 359 ft 90 kts 15°
2026-04-25 18:45 47.43512 0.72880 359 ft 18 kts 16°
2026-04-25 18:45 47.43580 0.72829 359 ft 11 kts 295°
2026-04-25 18:45 47.43601 0.72719 359 ft 10 kts 278°
2026-04-25 18:45 47.43609 0.72621 359 ft 9 kts 276°
2026-04-25 18:46 47.43575 0.72566 359 ft 8 kts 196°
2026-04-25 18:46 47.43486 0.72531 359 ft 18 kts 196°
2026-04-25 18:46 47.43332 0.72468 359 ft 27 kts 195°
2026-04-25 18:46 47.43154 0.72396 360 ft 26 kts 195°
2026-04-25 18:47 47.42985 0.72328 360 ft 24 kts 196°
2026-04-25 18:47 47.42823 0.72262 361 ft 23 kts 195°
2026-04-25 18:47 47.42674 0.72202 362 ft 20 kts 195°
2026-04-25 18:47 47.42603 0.72172 362 ft 5 kts 207°
2026-04-25 18:48 47.42596 0.72117 362 ft 8 kts 277°
2026-04-25 18:48 47.42605 0.72041 362 ft 5 kts 282°
2026-04-25 18:48 47.42616 0.72013 362 ft 1 kts 348°
2026-04-25 18:48 47.42625 0.72026 362 ft 1 kts 55°
2026-04-25 18:49 47.42626 0.72027 362 ft 0 kts 55°